Middlebury State AP, Middlebu, VT

10:23 AM EDT on September 18, 2019 (GMT -0400)
Middlebury State AP, Middlebu

Weather History for K6B0 - July, 2019

Change the Weather History Date:

Saturday, July 27, 2019

  Actual Average (WUND) Record (WUND)
Temperature  
Mean Temperature 71 °F -  
Max Temperature 84 °F - - (-1)
Min Temperature 58 °F - - (-1)
Cooling Degree Days 6    
Growing Degree Days 21 (Base 50)    
Moisture  
Dew Point 60 °F    
Average Humidity 68    
Maximum Humidity 94    
Minimum Humidity 40    
Precipitation  
Precipitation 0.00 in - - ()
Sea Level Pressure  
Sea Level Pressure 30.20 in    
Wind  
Wind Speed 2 mph ()    
Max Wind Speed 8 mph    
Max Gust Speed -    
Visibility 10.0 miles    
Events      
Averages and records for this station are not official NWS values.
T = Trace of Precipitation, MM = Missing Value Source: Averaged Metar Reports

Daily Weather History Graph

Daily Weather History Graph

Search for Another Location

Airport or City:

Astronomy

Jul. 27, 2019 Rise Set
Actual Time 5:35 AM EDT 8:22 PM EDT
Civil Twilight 5:01 AM EDT 8:55 PM EDT
Nautical Twilight 4:18 AM EDT 9:37 PM EDT
Astronomical Twilight 3:29 AM EDT 10:26 PM EDT
Moon 1:21 AM EDT (7/27) 4:09 PM EDT (7/27)
Length of Visible Light 15h 54m
Length of Day
14h 47m
Waning Crescent, 24% of the Moon is Illuminated
Jul 27
Waning Crescent
Jul 31
New
Aug 7
First Quarter
Aug 15
Full
Aug 23
Last Quarter

Hourly Weather History & Observations

Time (EDT) Temp. Heat Index Dew Point Humidity Pressure Visibility Wind Dir Wind Speed Gust Speed Precip Events Conditions
12:16 AM 63.5 °F - 57.6 °F 81% 30.25 in 10.0 mi Calm Calm - N/A   Clear
12:35 AM 63.7 °F - 58.1 °F 82% 30.25 in 10.0 mi Calm Calm - N/A   Clear
12:36 AM 63.7 °F - 58.1 °F 82% 30.25 in 10.0 mi Calm Calm - N/A   Clear
12:55 AM 63.1 °F - 58.1 °F 84% 30.25 in 10.0 mi Calm Calm - N/A   Clear
12:56 AM 63.0 °F - 57.9 °F 84% 30.25 in 10.0 mi Calm Calm - N/A   Clear
1:19 AM 62.1 °F - 57.6 °F 85% 30.25 in 10.0 mi Calm Calm - N/A   Clear
1:37 AM 63.0 °F - 57.0 °F 81% 30.25 in 10.0 mi Calm Calm - N/A   Clear
1:56 AM 61.7 °F - 57.2 °F 85% 30.25 in 10.0 mi Calm Calm - N/A   Clear
2:15 AM 61.0 °F - 57.4 °F 88% 30.25 in 10.0 mi Calm Calm - N/A   Clear
2:16 AM 61.0 °F - 57.4 °F 88% 30.25 in 10.0 mi Calm Calm - N/A   Clear
2:35 AM 60.6 °F - 57.6 °F 90% 30.25 in 10.0 mi Calm Calm - N/A   Clear
2:39 AM 60.8 °F - 57.4 °F 88% 30.25 in 10.0 mi Calm Calm - N/A   Clear
2:57 AM 59.9 °F - 57.2 °F 91% 30.25 in 10.0 mi Calm Calm - N/A   Clear
3:15 AM 60.1 °F - 56.5 °F 88% 30.25 in 10.0 mi Calm Calm - N/A   Clear
3:35 AM 58.8 °F - 56.3 °F 91% 30.25 in 10.0 mi Calm Calm - N/A   Clear
3:36 AM 58.8 °F - 56.5 °F 92% 30.25 in 10.0 mi Calm Calm - N/A   Clear
3:55 AM 58.5 °F - 56.5 °F 93% 30.25 in 10.0 mi Calm Calm - N/A   Clear
3:56 AM 58.5 °F - 56.7 °F 94% 30.25 in 10.0 mi Calm Calm - N/A   Clear
4:18 AM 59.0 °F - 56.3 °F 91% 30.25 in 10.0 mi Calm Calm - N/A   Clear
4:37 AM 58.5 °F - 56.5 °F 93% 30.25 in 10.0 mi Calm Calm - N/A   Clear
4:55 AM 58.1 °F - 55.6 °F 91% 30.26 in 10.0 mi Calm Calm - N/A   Clear
4:56 AM 58.1 °F - 55.6 °F 91% 30.26 in 10.0 mi Calm Calm - N/A   Clear
5:15 AM 58.3 °F - 56.1 °F 93% 30.26 in 10.0 mi Calm Calm - N/A   Clear
5:35 AM 58.5 °F - 56.5 °F 93% 30.26 in 10.0 mi Calm Calm - N/A   Scattered Clouds
5:57 AM 58.6 °F - 56.5 °F 93% 30.26 in 10.0 mi Calm Calm - N/A   Scattered Clouds
6:15 AM 59.2 °F - 57.0 °F 93% 30.27 in 10.0 mi Calm Calm - N/A   Scattered Clouds
6:35 AM 59.9 °F - 56.5 °F 88% 30.27 in 10.0 mi Calm Calm - N/A   Scattered Clouds
6:36 AM 59.9 °F - 56.5 °F 88% 30.27 in 10.0 mi Calm Calm - N/A   Scattered Clouds
6:55 AM 60.3 °F - 58.1 °F 93% 30.27 in 10.0 mi Calm Calm - N/A   Scattered Clouds
6:56 AM 60.3 °F - 58.1 °F 93% 30.27 in 10.0 mi Calm Calm - N/A   Scattered Clouds
7:18 AM 60.8 °F - 58.5 °F 92% 30.27 in 10.0 mi Calm Calm - N/A   Clear
7:36 AM 61.7 °F - 59.5 °F 93% 30.28 in 10.0 mi Calm Calm - N/A   Clear
8:15 AM 67.3 °F - 61.3 °F 81% 30.28 in 10.0 mi Calm Calm - N/A   Scattered Clouds
8:35 AM 67.6 °F - 61.9 °F 82% 30.28 in 10.0 mi Calm Calm - N/A   Scattered Clouds
8:58 AM 67.1 °F - 63.5 °F 88% 30.27 in 10.0 mi Calm Calm - N/A   Clear
9:15 AM 72.1 °F - 63.1 °F 73% 30.27 in 10.0 mi Calm Calm - N/A   Clear
9:35 AM 73.9 °F - 61.9 °F 66% 30.27 in 10.0 mi Calm Calm - N/A   Clear
9:36 AM 73.9 °F - 61.9 °F 66% 30.27 in 10.0 mi Calm Calm - N/A   Clear
9:55 AM 75.6 °F - 62.6 °F 64% 30.27 in 10.0 mi SSE 5.8 mph - N/A   Clear
9:56 AM 75.7 °F - 62.6 °F 64% 30.27 in 10.0 mi SSE 4.6 mph - N/A   Clear
10:18 AM 76.3 °F - 61.7 °F 60% 30.27 in 10.0 mi South 8.1 mph - N/A   Scattered Clouds
10:36 AM 77.4 °F - 63.0 °F 61% 30.26 in 10.0 mi South 8.1 mph - N/A   Scattered Clouds
10:56 AM 78.3 °F - 63.7 °F 61% 30.26 in 10.0 mi South 5.8 mph - N/A   Clear
11:15 AM 79.3 °F - 62.6 °F 56% 30.26 in 10.0 mi South 8.1 mph - N/A   Clear
11:16 AM 79.2 °F - 62.6 °F 57% 30.26 in 10.0 mi South 8.1 mph - N/A   Clear
11:35 AM 79.5 °F - 63.0 °F 57% 30.25 in 10.0 mi SSW 5.8 mph - N/A   Clear
11:58 AM 80.4 °F 81.6 °F 62.4 °F 54% 30.25 in 10.0 mi South 5.8 mph - N/A   Clear
12:16 PM 81.1 °F 82.7 °F 63.9 °F 56% 30.24 in 10.0 mi South 4.6 mph - N/A   Clear
12:35 PM 81.7 °F 83.0 °F 63.5 °F 54% 30.23 in 10.0 mi South 5.8 mph - N/A   Clear
12:36 PM 81.7 °F 83.0 °F 63.3 °F 54% 30.23 in 10.0 mi South 6.9 mph - N/A   Clear
12:55 PM 81.9 °F 83.1 °F 63.0 °F 53% 30.22 in 10.0 mi South 8.1 mph - N/A   Clear
1:18 PM 82.4 °F 82.9 °F 60.6 °F 48% 30.21 in 10.0 mi SSE 5.8 mph - N/A   Clear
1:36 PM 83.3 °F 84.1 °F 62.2 °F 49% 30.20 in 10.0 mi SSE 5.8 mph - N/A   Clear
1:55 PM 82.9 °F 83.5 °F 61.3 °F 48% 30.18 in 10.0 mi SSE 4.6 mph - N/A   Clear
1:56 PM 83.1 °F 83.7 °F 61.5 °F 48% 30.18 in 10.0 mi SSE 4.6 mph - N/A   Clear
2:15 PM 84.0 °F 84.2 °F 60.3 °F 45% 30.18 in 10.0 mi SSW 6.9 mph - N/A   Clear
2:16 PM 84.2 °F 84.0 °F 59.7 °F 43% 30.18 in 10.0 mi SW 3.5 mph - N/A   Clear
2:35 PM 84.6 °F 84.2 °F 59.0 °F 42% 30.17 in 10.0 mi South 6.9 mph - N/A   Clear
2:39 PM 84.2 °F 84.2 °F 60.1 °F 44% 30.17 in 10.0 mi Calm Calm - N/A   Clear
2:58 PM 84.0 °F 84.5 °F 62.1 °F 47% 30.17 in 10.0 mi South 5.8 mph - N/A   Clear
3:15 PM 84.4 °F 83.8 °F 58.5 °F 41% 30.16 in 10.0 mi SSW 8.1 mph - N/A   Clear
3:35 PM 83.8 °F 83.8 °F 59.7 °F 44% 30.16 in 10.0 mi South 8.1 mph - N/A   Clear
3:36 PM 83.8 °F 83.8 °F 60.1 °F 44% 30.16 in 10.0 mi South 6.9 mph - N/A   Clear
3:55 PM 84.2 °F 84.2 °F 60.1 °F 44% 30.15 in 10.0 mi South 8.1 mph - N/A   Clear
3:56 PM 84.2 °F 84.2 °F 60.1 °F 44% 30.15 in 10.0 mi South 8.1 mph - N/A   Clear
4:18 PM 83.3 °F 82.6 °F 56.3 °F 40% 30.15 in 10.0 mi SSW 5.8 mph - N/A   Clear
4:36 PM 81.0 °F 82.1 °F 62.6 °F 53% 30.14 in 10.0 mi SE 3.5 mph - N/A   Clear
4:55 PM 81.0 °F 83.8 °F 68.2 °F 65% 30.13 in 10.0 mi Calm Calm - N/A   Clear
5:15 PM 81.3 °F 83.0 °F 64.8 °F 57% 30.13 in 10.0 mi Calm Calm - N/A   Clear
5:35 PM 81.3 °F 83.0 °F 64.9 °F 57% 30.12 in 10.0 mi SSE 3.5 mph - N/A   Scattered Clouds
5:40 PM 81.9 °F 84.1 °F 66.4 °F 59% 30.12 in 10.0 mi SSE 4.6 mph - N/A   Scattered Clouds
5:57 PM 81.3 °F 82.7 °F 63.7 °F 55% 30.12 in 10.0 mi SSE 4.6 mph - N/A   Clear
6:15 PM 80.4 °F 82.7 °F 66.7 °F 63% 30.11 in 10.0 mi Calm Calm - N/A   Clear
6:35 PM 79.0 °F - 66.0 °F 64% 30.10 in 10.0 mi SSE 3.5 mph - N/A   Clear
6:36 PM 78.8 °F - 65.8 °F 64% 30.10 in 10.0 mi Calm Calm - N/A   Clear
6:55 PM 78.1 °F - 64.8 °F 63% 30.10 in 10.0 mi SE 3.5 mph - N/A   Clear
6:56 PM 78.1 °F - 64.9 °F 64% 30.10 in 10.0 mi SE 3.5 mph - N/A   Clear
7:18 PM 77.4 °F - 63.1 °F 61% 30.11 in 10.0 mi SE 3.5 mph - N/A   Clear
7:36 PM 75.2 °F - 63.0 °F 66% 30.11 in 10.0 mi SE 3.5 mph - N/A   Clear
7:56 PM 74.5 °F - 62.6 °F 66% 30.11 in 10.0 mi SSE 3.5 mph - N/A   Clear
8:15 PM 74.7 °F - 60.1 °F 60% 30.11 in 10.0 mi SE 5.8 mph - N/A   Clear
8:16 PM 74.7 °F - 60.1 °F 60% 30.11 in 10.0 mi SE 4.6 mph - N/A   Clear
8:35 PM 74.8 °F - 59.4 °F 58% 30.12 in 10.0 mi SSE 4.6 mph - N/A   Clear
8:58 PM 73.9 °F - 59.9 °F 61% 30.12 in 10.0 mi SSE 3.5 mph - N/A   Clear
9:16 PM 73.8 °F - 59.2 °F 60% 30.12 in 10.0 mi SSE 3.5 mph - N/A   Clear
9:35 PM 73.4 °F - 59.5 °F 62% 30.12 in 10.0 mi SSE 4.6 mph - N/A   Clear
9:36 PM 73.4 °F - 59.5 °F 62% 30.12 in 10.0 mi SSE 3.5 mph - N/A   Clear
9:55 PM 73.2 °F - 59.4 °F 62% 30.12 in 10.0 mi SE 3.5 mph - N/A   Clear
9:56 PM 73.4 °F - 59.2 °F 61% 30.12 in 10.0 mi SSE 4.6 mph - N/A   Clear
10:18 PM 74.3 °F - 59.0 °F 59% 30.12 in 10.0 mi SSE 5.8 mph - N/A   Clear
10:36 PM 73.6 °F - 59.2 °F 61% 30.12 in 10.0 mi South 4.6 mph - N/A   Clear
10:56 PM 74.5 °F - 59.2 °F 59% 30.12 in 10.0 mi SSE 5.8 mph - N/A   Clear
11:15 PM 73.9 °F - 59.4 °F 60% 30.12 in 10.0 mi SSE 4.6 mph - N/A   Clear
11:16 PM 74.1 °F - 59.5 °F 60% 30.12 in 10.0 mi SSE 3.5 mph - N/A   Clear